Terug naar catalogus

STARLINK-5586

ActiefCommunicatieVLEO
NORAD 55376·PAYLOAD·🇺🇸 United States

Gelanceerd Jan 26, 2023 vanaf Cape Canaveral Space Force Station

Loading…

Volgende Passages (komende 24 uur)

TLE

VersSource: CelesTrak SupGP

Epoch: Sep 15, 2026, 03:04 UTC

1 55376C 23013AX  26258.12826389  .00018339  00000+0  66421-3 0  2580
2 55376  42.9992 299.0304 0001485 262.6509  87.0268 15.27571267    13

Volg STARLINK-5586 in realtime met AllMySat

Download on the App Store